EN

Hourly Weather Cucaita

Today, 20 January, Wednesday

Time Temperature Precipitation Wind Pressure Humidity
00:00 +11°C° 0 mm 1 mps 550 mmHg 96%
01:00 +11°C° 0 mm 1 mps 550 mmHg 95%
02:00 +10°C° 0 mm 1 mps 549 mmHg 95%
03:00 +10°C° 0 mm 1 mps 549 mmHg 94%
04:00 +10°C° 0 mm 1 mps 548 mmHg 94%
05:00 +10°C° 0 mm 1 mps 549 mmHg 92%
06:00 +10°C° 0 mm 1 mps 549 mmHg 91%
07:00 +10°C° 0 mm 1 mps 550 mmHg 90%
08:00 +12°C° 0 mm 1 mps 551 mmHg 78%
09:00 +15°C° 0 mm 1 mps 553 mmHg 65%
10:00 +18°C° 0 mm 1 mps 554 mmHg 53%
11:00 +19°C° 0 mm 2 mps 554 mmHg 48%
12:00 +20°C° 0 mm 2 mps 554 mmHg 44%
13:00 +21°C° 0 mm 2 mps 554 mmHg 39%
14:00 +20°C° 0 mm 2 mps 553 mmHg 44%
15:00 +19°C° 0 mm 2 mps 552 mmHg 50%
16:00 +18°C° 0 mm 2 mps 551 mmHg 56%
17:00 +16°C° 0.1 mm 2 mps 551 mmHg 68%
18:00 +13°C° 0.1 mm 2 mps 550 mmHg 79%
19:00 +11°C° 0.1 mm 1 mps 549 mmHg 91%
20:00 +11°C° 0.1 mm 1 mps 549 mmHg 92%
21:00 +11°C° 0.1 mm 1 mps 549 mmHg 93%
22:00 +10°C° 0.1 mm 1 mps 550 mmHg 94%
23:00 +10°C° 0 mm 1 mps 549 mmHg 94%

Tomorrow, 21 January, Thursday

Time Temperature Precipitation Wind Pressure Humidity
00:00 +10°C° 0 mm 1 mps 549 mmHg 95%
01:00 +9°C° 0 mm 1 mps 549 mmHg 95%
02:00 +9°C° 0 mm 1 mps 548 mmHg 94%
03:00 +9°C° 0 mm 1 mps 548 mmHg 94%
04:00 +8°C° 0 mm 1 mps 548 mmHg 94%
05:00 +9°C° 0 mm 1 mps 548 mmHg 92%
06:00 +9°C° 0 mm 1 mps 549 mmHg 90%
07:00 +10°C° 0 mm 1 mps 550 mmHg 88%
08:00 +13°C° 0 mm 1 mps 551 mmHg 77%
09:00 +16°C° 0 mm 1 mps 553 mmHg 66%
10:00 +20°C° 0 mm 1 mps 555 mmHg 55%
11:00 +21°C° 0 mm 1 mps 554 mmHg 52%
12:00 +21°C° 0 mm 1 mps 554 mmHg 48%
13:00 +22°C° 0 mm 1 mps 554 mmHg 45%
14:00 +21°C° 0.2 mm 1 mps 553 mmHg 52%
15:00 +20°C° 0.2 mm 1 mps 552 mmHg 59%
16:00 +19°C° 0.2 mm 1 mps 551 mmHg 66%
17:00 +16°C° 0.3 mm 1 mps 551 mmHg 76%
18:00 +14°C° 0.3 mm 1 mps 550 mmHg 86%
19:00 +11°C° 0.3 mm 0 mps 550 mmHg 95%
20:00 +11°C° 0.3 mm 0 mps 550 mmHg 95%
21:00 +11°C° 0.3 mm 0 mps 550 mmHg 95%
22:00 +11°C° 0.3 mm 0 mps 551 mmHg 95%
23:00 +12°C° 0.1 mm 1 mps 550 mmHg 96%

Day after tomorrow, 22 January, Friday

Time Temperature Precipitation Wind Pressure Humidity
00:00 +11°C° 0.1 mm 1 mps 550 mmHg 96%
01:00 +11°C° 0.1 mm 1 mps 549 mmHg 96%
02:00 +10°C° 0 mm 1 mps 549 mmHg 96%
03:00 +10°C° 0 mm 1 mps 549 mmHg 96%
04:00 +9°C° 0 mm 1 mps 549 mmHg 95%
05:00 +10°C° 0 mm 1 mps 549 mmHg 95%
06:00 +10°C° 0 mm 1 mps 549 mmHg 94%
07:00 +10°C° 0 mm 1 mps 550 mmHg 93%
08:00 +12°C° 0 mm 1 mps 551 mmHg 84%
09:00 +14°C° 0 mm 1 mps 552 mmHg 75%
10:00 +18°C° 0 mm 1 mps 554 mmHg 66%
11:00 +19°C° 0 mm 1 mps 554 mmHg 62%
12:00 +19°C° 0 mm 2 mps 554 mmHg 58%
13:00 +20°C° 0 mm 2 mps 554 mmHg 54%
14:00 +19°C° 0.3 mm 2 mps 553 mmHg 61%
15:00 +18°C° 0.3 mm 2 mps 552 mmHg 67%
16:00 +17°C° 0.3 mm 2 mps 551 mmHg 74%
17:00 +15°C° 0.4 mm 1 mps 551 mmHg 81%
18:00 +14°C° 0.4 mm 1 mps 550 mmHg 89%
19:00 +12°C° 0.4 mm 1 mps 550 mmHg 96%
20:00 +12°C° 0.2 mm 1 mps 550 mmHg 96%
21:00 +12°C° 0.2 mm 1 mps 551 mmHg 96%
22:00 +12°C° 0.2 mm 1 mps 551 mmHg 96%
23:00 +12°C° 0.1 mm 1 mps 551 mmHg 96%

23 January, Saturday

Time Temperature Precipitation Wind Pressure Humidity
00:00 +11°C° 0.1 mm 1 mps 550 mmHg 96%
01:00 +11°C° 0.1 mm 1 mps 550 mmHg 96%
02:00 +11°C° 0 mm 1 mps 550 mmHg 95%
03:00 +10°C° 0 mm 1 mps 549 mmHg 95%
04:00 +10°C° 0 mm 1 mps 549 mmHg 94%
05:00 +10°C° 0 mm 1 mps 550 mmHg 94%
06:00 +10°C° 0 mm 1 mps 550 mmHg 93%
07:00 +10°C° 0 mm 1 mps 550 mmHg 93%
08:00 +13°C° 0 mm 1 mps 552 mmHg 83%
09:00 +15°C° 0 mm 1 mps 553 mmHg 73%
10:00 +18°C° 0 mm 1 mps 555 mmHg 63%
11:00 +19°C° 0.2 mm 1 mps 554 mmHg 62%
12:00 +20°C° 0.2 mm 1 mps 554 mmHg 61%
13:00 +19°C° 0.2 mm 2 mps 554 mmHg 60%
14:00 +19°C° 0.7 mm 1 mps 553 mmHg 66%
15:00 +18°C° 0.7 mm 1 mps 552 mmHg 72%
16:00 +18°C° 0.7 mm 1 mps 551 mmHg 78%
17:00 +15°C° 0.9 mm 1 mps 550 mmHg 84%
18:00 +14°C° 0.9 mm 1 mps 550 mmHg 89%
19:00 +13°C° 0.9 mm 1 mps 550 mmHg 95%
20:00 +12°C° 0.2 mm 1 mps 550 mmHg 95%
21:00 +12°C° 0.2 mm 1 mps 551 mmHg 96%
22:00 +12°C° 0.2 mm 1 mps 551 mmHg 96%
23:00 +11°C° 0 mm 1 mps 551 mmHg 96%

24 January, Sunday

Time Temperature Precipitation Wind Pressure Humidity
00:00 +11°C° 0 mm 1 mps 550 mmHg 96%
01:00 +11°C° 0 mm 1 mps 550 mmHg 96%
02:00 +11°C° 0 mm 1 mps 549 mmHg 96%
03:00 +10°C° 0 mm 1 mps 549 mmHg 96%
04:00 +10°C° 0 mm 1 mps 549 mmHg 96%
05:00 +10°C° 0 mm 1 mps 549 mmHg 96%
06:00 +10°C° 0 mm 1 mps 549 mmHg 95%
07:00 +10°C° 0 mm 1 mps 550 mmHg 94%
08:00 +12°C° 0 mm 1 mps 551 mmHg 85%
09:00 +14°C° 0 mm 1 mps 552 mmHg 76%
10:00 +16°C° 0 mm 1 mps 553 mmHg 68%
11:00 +17°C° 0.1 mm 2 mps 553 mmHg 64%
12:00 +18°C° 0.1 mm 2 mps 553 mmHg 61%
13:00 +19°C° 0.1 mm 2 mps 553 mmHg 57%
14:00 +18°C° 0.7 mm 2 mps 552 mmHg 66%
15:00 +16°C° 0.7 mm 2 mps 551 mmHg 75%
16:00 +15°C° 0.7 mm 1 mps 550 mmHg 84%
17:00 +14°C° 0.6 mm 1 mps 550 mmHg 88%
18:00 +13°C° 0.6 mm 1 mps 549 mmHg 91%
19:00 +12°C° 0.6 mm 1 mps 549 mmHg 95%
20:00 +12°C° 0.2 mm 1 mps 550 mmHg 95%
21:00 +11°C° 0.2 mm 1 mps 550 mmHg 95%
22:00 +11°C° 0.2 mm 1 mps 550 mmHg 96%
23:00 +11°C° 0 mm 1 mps 550 mmHg 96%

25 January, Monday

Time Temperature Precipitation Wind Pressure Humidity
00:00 +10°C° 0 mm 1 mps 549 mmHg 96%
01:00 +10°C° 0 mm 1 mps 549 mmHg 96%
02:00 +10°C° 0 mm 1 mps 549 mmHg 95%
03:00 +10°C° 0 mm 1 mps 548 mmHg 95%
04:00 +10°C° 0 mm 1 mps 548 mmHg 95%
05:00 +10°C° 0 mm 1 mps 549 mmHg 94%
06:00 +10°C° 0 mm 1 mps 549 mmHg 94%
07:00 +10°C° 0 mm 1 mps 549 mmHg 93%
08:00 +12°C° 0 mm 1 mps 551 mmHg 84%
09:00 +15°C° 0 mm 1 mps 552 mmHg 74%
10:00 +18°C° 0 mm 1 mps 554 mmHg 65%
11:00 +19°C° 0.1 mm 1 mps 553 mmHg 63%
12:00 +19°C° 0.1 mm 1 mps 553 mmHg 61%
13:00 +20°C° 0.1 mm 1 mps 553 mmHg 60%
14:00 +19°C° 0.3 mm 1 mps 552 mmHg 64%
15:00 +19°C° 0.3 mm 1 mps 551 mmHg 69%
16:00 +18°C° 0.3 mm 1 mps 550 mmHg 73%
17:00 +15°C° 0.3 mm 1 mps 549 mmHg 81%
18:00 +14°C° 0.3 mm 1 mps 549 mmHg 89%
19:00 +11°C° 0.3 mm 0 mps 548 mmHg 96%
20:00 +11°C° 0.1 mm 0 mps 549 mmHg 96%
21:00 +12°C° 0.1 mm 1 mps 549 mmHg 95%
22:00 +12°C° 0.1 mm 1 mps 550 mmHg 95%
23:00 +11°C° 0 mm 1 mps 549 mmHg 95%
Show more

We Need Your Consent

Meteoprog and our Service Providers may store and access personal data such as cookies, device identifiers or other similar technologies on your device and process such data to personalise content and ads, as well as provide social media features and to analyse the traffic.

  • Store and/or access information on your device

    Cookies, device identifiers or other information can be stored or accessed on your device for the purposes indicated above.

  • Personalised ads and content, ad and content measurement, audience insights, and products development

    Ads and content can be personalised based on a profile. More data can be added to better personalise ads and content. Ad and content performance can be measured. Insights about the audience who saw the ads and content can be derived. Such data can be used to develop or improve user’s experience, systems and software.

By clicking ‘I Agree’ you will allow the use of indicated cookies, device identifiers, web beacons or other similar technologies. Your settings can be changed in the browser on your device.

For certain purposes, legitimate interests may be relied on, rather than consent. You can read more about this in our Privacy and Cookie Policy.